Regional Weather Roundup
Issued by NWS

Home | Current Version | Previous Version | Text Only | Print | Product List | Glossary Off
Versions: 1 2 3 4 5 6 7 8 9 10 11 12 13 14 15 16 17 18 19 20 21 22 23 24 25 26 27 28 29 30 31 32 33 34 35 36 37 38 39 40 41 42 43 44 45 46 47 48 49 50

000
ASUS43 KLMK 061102
RWRKY
KENTUCKY REGIONAL WEATHER ROUNDUP
NATIONAL WEATHER SERVICE LOUISVILLE KY
600 AM EST FRI MAR 06 2015

NOTE "FAIR" INDICATES FEW OR NO CLOUDS BELOW 12,000 FEET
WITH NO SIGNIFICANT WEATHER AND/OR OBSTRUCTIONS TO VISIBILITY.

KYZ001>023-026-027-061>063-070>075-061200-
WESTERN AND SOUTH CENTRAL KENTUCKY

CITY           SKY/WX    TMP DP  RH WIND       PRES   REMARKS
PADUCAH        MOCLDY    -1  -3  91 CALM      30.58S
HENDERSON      PTCLDY    -6 -11  77 CALM      30.59S
OWENSBORO      PTCLDY     1  -3  83 NW3       30.59R
HOPKINSVILLE   MOCLDY     0  -4  83 W1        30.57R
BOWLING GREEN  FAIR       5   0  79 CALM      30.56S HAZE
GLASGOW        NOT AVBL
$$

KYZ024-025-028>034-038-045-046-053-061200-
NORTH CENTRAL KENTUCKY

CITY           SKY/WX    TMP DP  RH WIND       PRES   REMARKS
LOUISVILLE/SDF PTCLDY    10   6  84 CALM      30.57R
LOUISVILLE/LOU PTCLDY     5   2  87 CALM      30.57R
FORT KNOX      PTCLDY    -1  -5  82 CALM      30.52R
$$

KYZ035>037-039>044-047>052-055>060-089>105-061200-
NORTHEAST KENTUCKY

CITY           SKY/WX    TMP DP  RH WIND       PRES   REMARKS
LEXINGTON      MOCLDY    -1  -4  87 CALM      30.52R FOG
COVINGTON      PTCLDY     1  -2  87 CALM      30.54R
FRANKFORT      MOCLDY    -7 -12  79 CALM      30.54R
$$

KYZ054-064>069-076>088-106>120-061200-
SOUTHEAST KENTUCKY

CITY           SKY/WX    TMP DP  RH WIND       PRES   REMARKS
JACKSON        PTCLDY     9   4  80 CALM      30.49R
LONDON         PTCLDY     4  -4  69 CALM      30.50R
SOMERSET       NOT AVBL
MIDDLESBORO    PTCLDY    12  10  93 CALM      30.51R
MONTICELLO     HAZE      -9 -14  78 CALM      30.54S VSB<1/4
$$




USA.gov is the U.S. government's official web portal to all federal, state and local government web resources and services.